Wetterdaten: Samstag, 12.11.2016
Datum Zeit Temp. A. Aussentemp2 Feuchte A. Luftdruck Regen Wind Richtung Richtung Sonnenschein Helligkeit Solar
12.11.2016 00:00 1,7 C 6,3 C 77 % 1023,9 hPa 0,0 l/m 6,5 km/h (2 Bft) O-NO 60 0 min 0 lux 0 W/m
12.11.2016 00:05 1,7 C 6,3 C 77 % 1023,9 hPa 0,0 l/m 4,7 km/h (1 Bft) O-NO 60 0 min 0 lux 0 W/m
12.11.2016 00:09 1,8 C 6,3 C 76 % 1023,9 hPa 0,0 l/m 6,3 km/h (2 Bft) O-NO 60 0 min 0 lux 0 W/m
12.11.2016 00:14 1,8 C 6,3 C 76 % 1023,9 hPa 0,0 l/m 5,4 km/h (2 Bft) O-NO 60 0 min 0 lux 0 W/m
12.11.2016 00:20 1,8 C 6,3 C 76 % 1023,9 hPa 0,0 l/m 5,1 km/h (1 Bft) O-NO 60 0 min 0 lux 0 W/m
12.11.2016 00:25 1,8 C 6,3 C 76 % 1023,9 hPa 0,0 l/m 4,5 km/h (1 Bft) O-NO 60 0 min 0 lux 0 W/m
12.11.2016 00:30 1,7 C 6,3 C 76 % 1023,9 hPa 0,0 l/m 0,9 km/h (0 Bft) O-NO 60 0 min 0 lux 0 W/m
12.11.2016 00:34 1,6 C 6,3 C 76 % 1023,9 hPa 0,0 l/m 0,0 km/h (0 Bft) O-NO 60 0 min 0 lux 0 W/m
12.11.2016 00:39 1,4 C 6,3 C 76 % 1023,9 hPa 0,0 l/m 6,5 km/h (2 Bft) O-NO 60 0 min 0 lux 0 W/m
12.11.2016 00:45 1,2 C 6,3 C 77 % 1023,9 hPa 0,0 l/m 6,3 km/h (2 Bft) O-NO22.5 65 0 min 0 lux 0 W/m
12.11.2016 00:50 1,3 C 6,3 C 77 % 1023,9 hPa 0,0 l/m 10,7 km/h (2 Bft) O-NO22.5 75 0 min 0 lux 0 W/m
12.11.2016 00:55 1,2 C 6,3 C 77 % 1023,9 hPa 0,0 l/m 9,2 km/h (2 Bft) O-NO 70 0 min 0 lux 0 W/m
12.11.2016 01:00 1,2 C 6,3 C 77 % 1023,9 hPa 0,0 l/m 10,0 km/h (2 Bft) O22.5 90 0 min 0 lux 0 W/m
12.11.2016 01:05 1,2 C 6,3 C 78 % 1023,9 hPa 0,0 l/m 13,7 km/h (3 Bft) O-NO45 75 0 min 0 lux 0 W/m
12.11.2016 01:10 1,2 C 6,3 C 78 % 1023,9 hPa 0,0 l/m 11,5 km/h (2 Bft) O22.5 80 0 min 0 lux 0 W/m
12.11.2016 01:15 1,2 C 6,3 C 78 % 1023,9 hPa 0,0 l/m 12,0 km/h (2 Bft) O22.5 85 0 min 0 lux 0 W/m
12.11.2016 01:20 1,2 C 6,3 C 78 % 1023,9 hPa 0,0 l/m 13,0 km/h (3 Bft) O45 85 0 min 0 lux 0 W/m
12.11.2016 01:25 1,1 C 6,3 C 78 % 1023,9 hPa 0,0 l/m 11,3 km/h (2 Bft) O22.5 85 0 min 0 lux 0 W/m
12.11.2016 01:30 1,1 C 6,3 C 79 % 1023,9 hPa 0,0 l/m 7,1 km/h (2 Bft) O-NO22.5 75 0 min 0 lux 0 W/m
12.11.2016 01:34 1,0 C 6,3 C 79 % 1023,9 hPa 0,0 l/m 8,9 km/h (2 Bft) O45 85 0 min 0 lux 0 W/m
12.11.2016 01:39 1,0 C 6,3 C 79 % 1023,9 hPa 0,0 l/m 7,9 km/h (2 Bft) O22.5 85 0 min 0 lux 0 W/m
12.11.2016 01:45 1,0 C 6,3 C 80 % 1023,9 hPa 0,0 l/m 9,2 km/h (2 Bft) O22.5 90 0 min 0 lux 0 W/m
12.11.2016 01:50 0,9 C 6,3 C 79 % 1023,9 hPa 0,0 l/m 9,1 km/h (2 Bft) O22.5 95 0 min 0 lux 0 W/m
12.11.2016 01:55 1,0 C 6,3 C 80 % 1023,9 hPa 0,0 l/m 10,8 km/h (2 Bft) O22.5 95 0 min 0 lux 0 W/m
12.11.2016 02:00 0,9 C 6,3 C 80 % 1023,9 hPa 0,0 l/m 10,6 km/h (2 Bft) O22.5 85 0 min 0 lux 0 W/m
12.11.2016 02:05 0,9 C 6,3 C 80 % 1023,9 hPa 0,0 l/m 6,2 km/h (2 Bft) O 85 0 min 0 lux 0 W/m
12.11.2016 02:10 0,9 C 6,3 C 80 % 1023,9 hPa 0,0 l/m 6,5 km/h (2 Bft) O 85 0 min 0 lux 0 W/m
12.11.2016 02:15 0,9 C 6,3 C 80 % 1023,9 hPa 0,0 l/m 5,0 km/h (1 Bft) O 80 0 min 0 lux 0 W/m
12.11.2016 02:19 0,9 C 6,3 C 80 % 1023,9 hPa 0,0 l/m 4,8 km/h (1 Bft) O 80 0 min 0 lux 0 W/m
12.11.2016 02:24 1,0 C 6,3 C 81 % 1023,9 hPa 0,0 l/m 2,4 km/h (1 Bft) O 80 0 min 0 lux 0 W/m
12.11.2016 02:30 1,0 C 6,3 C 81 % 1023,9 hPa 0,0 l/m 0,3 km/h (0 Bft) O 80 0 min 0 lux 0 W/m
12.11.2016 02:35 1,0 C 6,3 C 81 % 1023,9 hPa 0,0 l/m 0,6 km/h (0 Bft) O 80 0 min 0 lux 0 W/m
12.11.2016 02:40 1,0 C 6,2 C 81 % 1023,9 hPa 0,0 l/m 7,6 km/h (2 Bft) O 80 0 min 0 lux 0 W/m
12.11.2016 02:45 1,0 C 6,3 C 81 % 1023,9 hPa 0,0 l/m 5,2 km/h (1 Bft) O 85 0 min 0 lux 0 W/m
12.11.2016 02:49 1,0 C 6,3 C 81 % 1023,9 hPa 0,0 l/m 6,7 km/h (2 Bft) O 85 0 min 0 lux 0 W/m
12.11.2016 02:55 1,0 C 6,3 C 81 % 1023,9 hPa 0,0 l/m 7,0 km/h (2 Bft) O 85 0 min 0 lux 0 W/m
12.11.2016 03:00 0,7 C 6,3 C 82 % 1024,0 hPa 0,0 l/m 1,9 km/h (1 Bft) O 85 0 min 0 lux 0 W/m
12.11.2016 03:04 0,7 C 6,3 C 82 % 1024,0 hPa 0,0 l/m 6,1 km/h (2 Bft) O 85 0 min 0 lux 0 W/m
12.11.2016 03:09 0,6 C 6,3 C 82 % 1024,0 hPa 0,0 l/m 5,3 km/h (1 Bft) O 85 0 min 0 lux 0 W/m
12.11.2016 03:15 0,5 C 6,3 C 82 % 1024,0 hPa 0,0 l/m 7,9 km/h (2 Bft) O 85 0 min 0 lux 0 W/m
12.11.2016 03:20 0,5 C 6,3 C 82 % 1024,0 hPa 0,0 l/m 6,8 km/h (2 Bft) O 85 0 min 0 lux 0 W/m
12.11.2016 03:25 0,3 C 6,2 C 83 % 1024,0 hPa 0,0 l/m 6,1 km/h (2 Bft) O 85 0 min 0 lux 0 W/m
12.11.2016 03:30 0,3 C 6,3 C 83 % 1024,0 hPa 0,0 l/m 7,6 km/h (2 Bft) O 85 0 min 0 lux 0 W/m
12.11.2016 03:34 0,3 C 6,3 C 83 % 1023,0 hPa 0,0 l/m 8,5 km/h (2 Bft) O22.5 100 0 min 0 lux 0 W/m
12.11.2016 03:40 0,3 C 6,3 C 83 % 1024,0 hPa 0,0 l/m 6,7 km/h (2 Bft) O-SO 105 0 min 0 lux 0 W/m
12.11.2016 03:45 0,2 C 6,3 C 83 % 1024,0 hPa 0,0 l/m 8,8 km/h (2 Bft) O-SO 105 0 min 0 lux 0 W/m
12.11.2016 03:50 0,2 C 6,2 C 84 % 1024,0 hPa 0,0 l/m 8,8 km/h (2 Bft) O-SO 105 0 min 0 lux 0 W/m
12.11.2016 03:55 0,2 C 6,3 C 84 % 1024,0 hPa 0,0 l/m 9,8 km/h (2 Bft) O22.5 95 0 min 0 lux 0 W/m
12.11.2016 03:59 0,2 C 6,3 C 84 % 1024,0 hPa 0,0 l/m 7,2 km/h (2 Bft) O 100 0 min 0 lux 0 W/m
12.11.2016 04:05 0,1 C 6,2 C 84 % 1024,0 hPa 0,0 l/m 7,0 km/h (2 Bft) O 100 0 min 0 lux 0 W/m
12.11.2016 04:10 0,0 C 6,2 C 84 % 1024,0 hPa 0,0 l/m 5,2 km/h (1 Bft) O 100 0 min 0 lux 0 W/m
12.11.2016 04:15 0,0 C 6,3 C 84 % 1023,0 hPa 0,0 l/m 6,2 km/h (2 Bft) O 100 0 min 0 lux 0 W/m
12.11.2016 04:19 0,0 C 6,2 C 84 % 1023,0 hPa 0,0 l/m 1,2 km/h (1 Bft) O 100 0 min 0 lux 0 W/m
12.11.2016 04:25 0,0 C 6,2 C 84 % 1023,0 hPa 0,0 l/m 3,1 km/h (1 Bft) O 100 0 min 0 lux 0 W/m
12.11.2016 04:30 -0,2 C 6,2 C 84 % 1023,0 hPa 0,0 l/m 6,6 km/h (2 Bft) O 100 0 min 0 lux 0 W/m
12.11.2016 04:35 -0,2 C 6,2 C 84 % 1023,0 hPa 0,0 l/m 6,3 km/h (2 Bft) O 100 0 min 0 lux 0 W/m
12.11.2016 04:40 0,0 C 6,2 C 84 % 1024,0 hPa 0,0 l/m 6,5 km/h (2 Bft) O 100 0 min 0 lux 0 W/m
12.11.2016 04:44 0,0 C 6,2 C 84 % 1024,0 hPa 0,0 l/m 5,8 km/h (2 Bft) O 100 0 min 0 lux 0 W/m
12.11.2016 04:49 0,0 C 6,2 C 84 % 1023,0 hPa 0,0 l/m 3,8 km/h (1 Bft) O 100 0 min 0 lux 0 W/m
12.11.2016 04:55 0,0 C 6,2 C 84 % 1024,0 hPa 0,0 l/m 3,3 km/h (1 Bft) O 100 0 min 0 lux 0 W/m
12.11.2016 05:00 -0,2 C 6,2 C 84 % 1023,0 hPa 0,0 l/m 5,8 km/h (2 Bft) O 100 0 min 0 lux 0 W/m
12.11.2016 05:04 0,0 C 6,1 C 84 % 1023,0 hPa 0,0 l/m 4,8 km/h (1 Bft) O 100 0 min 0 lux 0 W/m
12.11.2016 05:10 -0,2 C 6,1 C 85 % 1023,0 hPa 0,0 l/m 3,9 km/h (1 Bft) O 100 0 min 0 lux 0 W/m
12.11.2016 05:15 -0,2 C 6,2 C 85 % 1023,0 hPa 0,0 l/m 0,3 km/h (0 Bft) O 100 0 min 0 lux 0 W/m
12.11.2016 05:20 -0,2 C 6,1 C 85 % 1023,0 hPa 0,0 l/m 3,6 km/h (1 Bft) O 100 0 min 0 lux 0 W/m
12.11.2016 05:25 -0,2 C 6,1 C 85 % 1023,0 hPa 0,0 l/m 2,6 km/h (1 Bft) O 100 0 min 0 lux 0 W/m
12.11.2016 05:29 -0,2 C 6,2 C 85 % 1023,0 hPa 0,0 l/m 6,4 km/h (2 Bft) O-SO 105 0 min 0 lux 0 W/m
12.11.2016 05:34 0,0 C 6,2 C 85 % 1023,0 hPa 0,0 l/m 6,1 km/h (2 Bft) O-SO 105 0 min 0 lux 0 W/m
12.11.2016 05:40 0,1 C 6,2 C 85 % 1023,0 hPa 0,0 l/m 7,6 km/h (2 Bft) O-SO 105 0 min 0 lux 0 W/m
12.11.2016 05:45 0,1 C 6,2 C 85 % 1023,0 hPa 0,0 l/m 5,7 km/h (2 Bft) O-SO 105 0 min 0 lux 0 W/m
12.11.2016 05:50 0,1 C 6,2 C 85 % 1023,0 hPa 0,0 l/m 6,5 km/h (2 Bft) O-SO 105 0 min 0 lux 0 W/m
12.11.2016 05:55 0,2 C 6,2 C 85 % 1023,0 hPa 0,0 l/m 5,6 km/h (2 Bft) O-SO 105 0 min 0 lux 0 W/m
12.11.2016 05:59 0,1 C 6,2 C 84 % 1023,0 hPa 0,0 l/m 6,7 km/h (2 Bft) O-SO 105 0 min 0 lux 0 W/m
12.11.2016 06:05 0,1 C 6,2 C 84 % 1023,0 hPa 0,0 l/m 6,4 km/h (2 Bft) O-SO 105 0 min 0 lux 0 W/m
12.11.2016 06:10 0,1 C 6,2 C 84 % 1023,0 hPa 0,0 l/m 4,8 km/h (1 Bft) O-SO 105 0 min 0 lux 0 W/m
12.11.2016 06:14 0,2 C 6,1 C 85 % 1023,0 hPa 0,0 l/m 9,6 km/h (2 Bft) O-SO22.5 105 0 min 0 lux 0 W/m
12.11.2016 06:19 0,2 C 6,1 C 85 % 1023,0 hPa 0,0 l/m 10,5 km/h (2 Bft) O-SO22.5 120 0 min 0 lux 0 W/m
12.11.2016 06:25 0,2 C 6,1 C 84 % 1023,0 hPa 0,0 l/m 11,1 km/h (2 Bft) SO22.5 125 0 min 0 lux 0 W/m
12.11.2016 06:30 0,2 C 6,1 C 84 % 1023,0 hPa 0,0 l/m 6,4 km/h (2 Bft) O-SO22.5 115 0 min 0 lux 0 W/m
12.11.2016 06:35 0,1 C 6,1 C 84 % 1023,0 hPa 0,0 l/m 0,8 km/h (0 Bft) SO 125 0 min 0 lux 0 W/m
12.11.2016 06:40 0,1 C 6,1 C 84 % 1023,0 hPa 0,0 l/m 0,5 km/h (0 Bft) SO22.5 125 0 min 0 lux 0 W/m
12.11.2016 06:44 0,0 C 6,1 C 84 % 1023,0 hPa 0,0 l/m 8,5 km/h (2 Bft) O-SO 105 0 min 0 lux 0 W/m
12.11.2016 06:50 -0,2 C 6,1 C 84 % 1023,0 hPa 0,0 l/m 4,8 km/h (1 Bft) O 95 0 min 0 lux 0 W/m
12.11.2016 06:54 -0,2 C 6,1 C 84 % 1023,0 hPa 0,0 l/m 3,6 km/h (1 Bft) O 90 0 min 0 lux 0 W/m
12.11.2016 06:59 -0,2 C 6,1 C 84 % 1023,0 hPa 0,0 l/m 5,2 km/h (1 Bft) O 90 0 min 0 lux 0 W/m
12.11.2016 07:05 -0,2 C 6,1 C 84 % 1023,0 hPa 0,0 l/m 4,6 km/h (1 Bft) O 100 0 min 0 lux 0 W/m
12.11.2016 07:10 -0,2 C 6,1 C 84 % 1023,0 hPa 0,0 l/m 0,8 km/h (0 Bft) O-SO 105 0 min 0 lux 0 W/m
12.11.2016 07:14 0,0 C 6,1 C 84 % 1023,0 hPa 0,0 l/m 3,9 km/h (1 Bft) O-SO 105 0 min 0 lux 0 W/m
12.11.2016 07:20 0,0 C 6,0 C 84 % 1023,0 hPa 0,0 l/m 7,3 km/h (2 Bft) O-SO22.5 120 0 min 0 lux 0 W/m
12.11.2016 07:25 0,0 C 6,0 C 84 % 1023,0 hPa 0,0 l/m 8,5 km/h (2 Bft) S-SO 155 0 min 0 lux 0 W/m
12.11.2016 07:30 0,3 C 6,0 C 84 % 1023,0 hPa 0,0 l/m 8,1 km/h (2 Bft) SO22.5 145 0 min 0 lux 0 W/m
12.11.2016 07:35 0,5 C 6,0 C 84 % 1023,0 hPa 0,0 l/m 8,5 km/h (2 Bft) S-SO 150 0 min 0 lux 0 W/m
12.11.2016 07:39 0,6 C 5,8 C 84 % 1023,0 hPa 0,0 l/m 12,6 km/h (3 Bft) SO22.5 145 0 min 0 lux 0 W/m
12.11.2016 07:44 0,6 C 5,9 C 84 % 1023,0 hPa 0,0 l/m 7,9 km/h (2 Bft) SO22.5 135 0 min 0 lux 0 W/m
12.11.2016 07:50 0,6 C 5,6 C 83 % 1023,0 hPa 0,0 l/m 13,9 km/h (3 Bft) S-SO22.5 160 0 min 0 lux 0 W/m
12.11.2016 07:55 0,6 C 5,8 C 83 % 1023,0 hPa 0,0 l/m 11,1 km/h (2 Bft) S-SO22.5 150 0 min 0 lux 0 W/m
12.11.2016 08:00 0,7 C 5,9 C 83 % 1022,9 hPa 0,0 l/m 9,8 km/h (2 Bft) S-SO22.5 150 0 min 0 lux 0 W/m
12.11.2016 08:05 0,6 C 6,0 C 83 % 1023,0 hPa 0,0 l/m 6,8 km/h (2 Bft) SO22.5 135 0 min 0 lux 0 W/m
12.11.2016 08:10 0,7 C 6,0 C 83 % 1022,9 hPa 0,0 l/m 7,4 km/h (2 Bft) SO 130 0 min 0 lux 0 W/m
12.11.2016 08:15 0,7 C 6,0 C 83 % 1022,9 hPa 0,0 l/m 9,6 km/h (2 Bft) SO45 130 0 min 0 lux 0 W/m
12.11.2016 08:20 0,6 C 5,8 C 83 % 1023,0 hPa 0,0 l/m 15,1 km/h (3 Bft) SO22.5 140 0 min 0 lux 0 W/m
12.11.2016 08:24 0,7 C 5,7 C 82 % 1022,9 hPa 0,0 l/m 11,5 km/h (2 Bft) SO22.5 140 0 min 0 lux 0 W/m
12.11.2016 08:29 0,7 C 6,0 C 82 % 1022,9 hPa 0,0 l/m 11,8 km/h (2 Bft) SO45 140 0 min 0 lux 0 W/m
12.11.2016 08:35 0,7 C 5,8 C 82 % 1022,9 hPa 0,0 l/m 11,5 km/h (2 Bft) SO45 140 0 min 0 lux 0 W/m
12.11.2016 08:40 0,7 C 5,9 C 82 % 1022,9 hPa 0,0 l/m 15,0 km/h (3 Bft) SO45 135 0 min 0 lux 0 W/m
12.11.2016 08:45 0,8 C 6,1 C 82 % 1022,9 hPa 0,0 l/m 6,8 km/h (2 Bft) SO67.5 130 0 min 0 lux 0 W/m
12.11.2016 08:49 0,8 C 6,0 C 82 % 1022,9 hPa 0,0 l/m 10,0 km/h (2 Bft) O-SO45 120 0 min 0 lux 0 W/m
12.11.2016 08:54 0,8 C 6,0 C 82 % 1022,9 hPa 0,0 l/m 7,9 km/h (2 Bft) SO22.5 125 0 min 0 lux 0 W/m
12.11.2016 09:00 0,9 C 5,9 C 82 % 1022,9 hPa 0,0 l/m 9,3 km/h (2 Bft) SO45 130 0 min 0 lux 0 W/m
12.11.2016 09:05 0,9 C 6,0 C 82 % 1022,9 hPa 0,0 l/m 9,9 km/h (2 Bft) O-SO22.5 115 0 min 0 lux 0 W/m
12.11.2016 09:04 0,9 C 6,0 C 82 % 1022,9 hPa 0,0 l/m 9,9 km/h (2 Bft) O-SO22.5 115 0 min 0 lux 0 W/m
12.11.2016 09:10 1,1 C 6,0 C 82 % 1022,9 hPa 0,0 l/m 7,0 km/h (2 Bft) SO22.5 125 0 min 0 lux 0 W/m
12.11.2016 09:15 1,2 C 6,0 C 81 % 1022,9 hPa 0,0 l/m 7,6 km/h (2 Bft) SO22.5 135 0 min 0 lux 0 W/m
12.11.2016 09:19 1,4 C 6,0 C 81 % 1022,9 hPa 0,0 l/m 7,9 km/h (2 Bft) O-SO22.5 115 0 min 0 lux 0 W/m
12.11.2016 09:25 1,7 C 6,0 C 81 % 1022,9 hPa 0,0 l/m 7,6 km/h (2 Bft) S-SO22.5 155 0 min 0 lux 0 W/m
12.11.2016 09:30 1,9 C 5,8 C 81 % 1022,9 hPa 0,0 l/m 10,0 km/h (2 Bft) O-SO67.5 120 0 min 0 lux 0 W/m
12.11.2016 09:35 1,9 C 5,8 C 81 % 1022,9 hPa 0,0 l/m 10,6 km/h (2 Bft) SO45 145 0 min 0 lux 0 W/m
12.11.2016 09:40 2,5 C 5,8 C 79 % 1022,9 hPa 0,0 l/m 11,1 km/h (2 Bft) SO45 130 0 min 0 lux 0 W/m
12.11.2016 09:44 2,5 C 5,8 C 78 % 1022,9 hPa 0,0 l/m 14,9 km/h (3 Bft) S-SO45 160 0 min 0 lux 0 W/m
12.11.2016 09:49 2,5 C 5,7 C 77 % 1022,9 hPa 0,0 l/m 19,0 km/h (3 Bft) SO45 145 0 min 0 lux 0 W/m
12.11.2016 09:55 2,3 C 5,7 C 77 % 1022,9 hPa 0,0 l/m 20,6 km/h (4 Bft) S-SO45 160 0 min 0 lux 0 W/m
12.11.2016 10:00 2,3 C 5,6 C 77 % 1022,9 hPa 0,0 l/m 20,9 km/h (4 Bft) S-SO45 160 0 min 0 lux 0 W/m
12.11.2016 09:59 2,3 C 5,6 C 77 % 1022,9 hPa 0,0 l/m 20,9 km/h (4 Bft) S-SO45 160 0 min 0 lux 0 W/m
12.11.2016 10:05 2,6 C 5,7 C 77 % 1022,9 hPa 0,0 l/m 10,6 km/h (2 Bft) S-SO45 155 0 min 0 lux 0 W/m
12.11.2016 10:09 2,7 C 5,7 C 76 % 1022,9 hPa 0,0 l/m 22,9 km/h (4 Bft) S-SO45 160 0 min 0 lux 0 W/m
12.11.2016 10:15 2,9 C 4,1 C 75 % 1022,9 hPa 0,0 l/m 18,7 km/h (3 Bft) S-SO67.5 160 0 min 0 lux 0 W/m
12.11.2016 10:20 3,0 C 4,5 C 74 % 1022,9 hPa 0,0 l/m 21,5 km/h (4 Bft) S-SO67.5 150 0 min 0 lux 0 W/m
12.11.2016 10:25 3,0 C 4,0 C 74 % 1022,9 hPa 0,0 l/m 18,8 km/h (3 Bft) SO67.5 145 0 min 0 lux 0 W/m
12.11.2016 10:30 3,0 C 4,0 C 73 % 1022,9 hPa 0,0 l/m 18,1 km/h (3 Bft) S-SO67.5 155 0 min 0 lux 0 W/m
12.11.2016 10:34 3,2 C 4,4 C 73 % 1022,9 hPa 0,0 l/m 21,1 km/h (4 Bft) S-SO45 165 0 min 0 lux 0 W/m
12.11.2016 10:39 3,5 C 4,6 C 73 % 1022,9 hPa 0,0 l/m 21,0 km/h (4 Bft) S-SO22.5 165 0 min 0 lux 0 W/m
12.11.2016 10:45 3,5 C 4,5 C 72 % 1022,9 hPa 0,0 l/m 18,0 km/h (3 Bft) S-SO67.5 150 0 min 0 lux 0 W/m
12.11.2016 10:50 3,7 C 4,8 C 72 % 1022,9 hPa 0,0 l/m 19,9 km/h (4 Bft) S-SO67.5 150 0 min 0 lux 0 W/m
12.11.2016 10:55 3,7 C 4,7 C 70 % 1022,9 hPa 0,0 l/m 27,3 km/h (5 Bft) S-SO67.5 155 0 min 0 lux 0 W/m
12.11.2016 10:59 3,9 C 5,3 C 71 % 1022,9 hPa 0,0 l/m 27,3 km/h (5 Bft) S-SO67.5 155 0 min 0 lux 0 W/m
12.11.2016 11:05 4,0 C 5,4 C 70 % 1022,9 hPa 0,0 l/m 17,1 km/h (3 Bft) S-SO67.5 155 0 min 0 lux 0 W/m
12.11.2016 11:10 4,0 C 5,3 C 69 % 1022,9 hPa 0,0 l/m 21,0 km/h (4 Bft) S-SO22.5 160 0 min 0 lux 0 W/m
12.11.2016 11:15 4,0 C 5,4 C 69 % 1022,9 hPa 0,0 l/m 23,1 km/h (4 Bft) S67.5 170 0 min 0 lux 0 W/m
12.11.2016 11:19 4,4 C 5,5 C 70 % 1022,9 hPa 0,0 l/m 16,8 km/h (3 Bft) S-SO45 160 0 min 0 lux 0 W/m
12.11.2016 11:25 4,2 C 5,4 C 68 % 1022,9 hPa 0,0 l/m 31,7 km/h (5 Bft) S-SO45 160 0 min 0 lux 0 W/m
12.11.2016 11:30 4,2 C 5,5 C 68 % 1022,9 hPa 0,0 l/m 24,5 km/h (4 Bft) S-SO45 165 0 min 0 lux 0 W/m
12.11.2016 11:35 4,3 C 5,5 C 68 % 1022,9 hPa 0,0 l/m 22,4 km/h (4 Bft) S-SO22.5 155 0 min 0 lux 0 W/m
12.11.2016 11:40 4,4 C 5,6 C 68 % 1022,9 hPa 0,0 l/m 19,1 km/h (3 Bft) SO45 145 0 min 0 lux 0 W/m
12.11.2016 11:45 4,7 C 5,6 C 68 % 1022,9 hPa 0,0 l/m 13,8 km/h (3 Bft) S-SO67.5 150 0 min 0 lux 0 W/m
12.11.2016 11:50 4,7 C 5,7 C 68 % 1022,9 hPa 0,0 l/m 22,3 km/h (4 Bft) S-SO45 150 0 min 0 lux 0 W/m
12.11.2016 11:55 4,8 C 5,7 C 67 % 1022,9 hPa 0,0 l/m 20,0 km/h (4 Bft) S-SO22.5 160 0 min 0 lux 0 W/m
12.11.2016 11:59 4,9 C 5,7 C 67 % 1022,9 hPa 0,0 l/m 22,4 km/h (4 Bft) S-SO45 160 0 min 0 lux 0 W/m
12.11.2016 12:05 4,9 C 5,8 C 67 % 1022,9 hPa 0,0 l/m 18,2 km/h (3 Bft) S-SO67.5 165 0 min 0 lux 0 W/m
12.11.2016 12:10 5,2 C 5,8 C 67 % 1022,9 hPa 0,0 l/m 18,0 km/h (3 Bft) S-SO22.5 160 0 min 0 lux 0 W/m
12.11.2016 12:14 5,3 C 5,2 C 67 % 1022,9 hPa 0,0 l/m 18,4 km/h (3 Bft) S-SO45 160 0 min 0 lux 0 W/m
12.11.2016 12:20 5,4 C 5,4 C 67 % 1022,9 hPa 0,0 l/m 19,5 km/h (3 Bft) S-SO67.5 155 0 min 0 lux 0 W/m
12.11.2016 12:25 5,3 C 5,6 C 66 % 1022,9 hPa 0,0 l/m 18,7 km/h (3 Bft) S45 170 0 min 0 lux 0 W/m
12.11.2016 12:30 5,5 C 5,5 C 66 % 1022,9 hPa 0,0 l/m 15,1 km/h (3 Bft) S-SO67.5 165 0 min 0 lux 0 W/m
12.11.2016 12:35 5,5 C 5,3 C 66 % 1022,9 hPa 0,0 l/m 24,9 km/h (4 Bft) S-SO22.5 165 0 min 0 lux 0 W/m
12.11.2016 12:39 5,6 C 5,5 C 66 % 1022,9 hPa 0,0 l/m 16,6 km/h (3 Bft) S-SO45 150 0 min 0 lux 0 W/m
12.11.2016 12:45 5,6 C 5,7 C 66 % 1022,9 hPa 0,0 l/m 16,2 km/h (3 Bft) S-SO45 160 0 min 0 lux 0 W/m
12.11.2016 12:50 5,8 C 5,7 C 65 % 1021,9 hPa 0,0 l/m 13,2 km/h (3 Bft) S-SO45 160 0 min 0 lux 0 W/m
12.11.2016 12:55 5,7 C 5,6 C 65 % 1021,9 hPa 0,0 l/m 22,0 km/h (4 Bft) S-SO22.5 165 0 min 0 lux 0 W/m
12.11.2016 13:00 5,6 C 5,5 C 65 % 1021,9 hPa 0,0 l/m 23,1 km/h (4 Bft) S-SO22.5 165 0 min 0 lux 0 W/m
12.11.2016 13:05 5,6 C 5,6 C 65 % 1021,9 hPa 0,0 l/m 21,3 km/h (4 Bft) S-SO67.5 160 0 min 0 lux 0 W/m
12.11.2016 13:10 5,6 C 5,6 C 65 % 1021,9 hPa 0,0 l/m 17,7 km/h (3 Bft) S-SO45 150 0 min 0 lux 0 W/m
12.11.2016 13:15 5,8 C 5,6 C 65 % 1021,9 hPa 0,0 l/m 23,0 km/h (4 Bft) S-SO45 165 0 min 0 lux 0 W/m
12.11.2016 13:19 5,9 C 5,8 C 65 % 1021,9 hPa 0,0 l/m 22,7 km/h (4 Bft) SO67.5 140 0 min 0 lux 0 W/m
12.11.2016 13:24 5,9 C 6,0 C 65 % 1021,9 hPa 0,0 l/m 22,3 km/h (4 Bft) S-SO45 155 0 min 0 lux 0 W/m
12.11.2016 13:30 6,0 C 5,8 C 64 % 1021,9 hPa 0,0 l/m 15,5 km/h (3 Bft) SO45 145 0 min 0 lux 0 W/m
12.11.2016 13:35 5,9 C 6,2 C 64 % 1021,9 hPa 0,0 l/m 19,6 km/h (3 Bft) S-SO22.5 155 0 min 0 lux 0 W/m
12.11.2016 13:40 6,0 C 6,2 C 65 % 1021,9 hPa 0,0 l/m 17,8 km/h (3 Bft) S-SO45 160 0 min 0 lux 0 W/m
12.11.2016 13:44 6,2 C 6,2 C 65 % 1021,9 hPa 0,0 l/m 15,7 km/h (3 Bft) SO 135 0 min 0 lux 0 W/m
12.11.2016 13:49 6,4 C 6,4 C 65 % 1021,9 hPa 0,0 l/m 18,0 km/h (3 Bft) S-SO67.5 150 0 min 0 lux 0 W/m
12.11.2016 13:55 6,3 C 6,3 C 64 % 1021,9 hPa 0,0 l/m 22,0 km/h (4 Bft) S22.5 170 0 min 0 lux 0 W/m
12.11.2016 14:00 6,1 C 6,2 C 64 % 1021,9 hPa 0,0 l/m 19,8 km/h (3 Bft) S-SO45 165 0 min 0 lux 0 W/m
12.11.2016 14:04 6,0 C 6,2 C 64 % 1021,9 hPa 0,0 l/m 15,9 km/h (3 Bft) S-SO22.5 155 0 min 0 lux 0 W/m
12.11.2016 14:10 6,1 C 6,8 C 64 % 1021,9 hPa 0,0 l/m 18,0 km/h (3 Bft) S-SO22.5 160 0 min 0 lux 0 W/m
12.11.2016 14:15 6,0 C 6,2 C 64 % 1021,9 hPa 0,0 l/m 14,0 km/h (3 Bft) S-SO45 160 0 min 0 lux 0 W/m
12.11.2016 14:20 5,6 C 6,2 C 65 % 1021,9 hPa 0,0 l/m 11,6 km/h (2 Bft) S-SO45 150 0 min 0 lux 0 W/m
12.11.2016 14:25 5,4 C 5,8 C 66 % 1021,9 hPa 0,0 l/m 17,1 km/h (3 Bft) S-SO22.5 165 0 min 0 lux 0 W/m
12.11.2016 14:29 5,4 C 5,8 C 66 % 1021,9 hPa 0,0 l/m 17,4 km/h (3 Bft) S-SO22.5 155 0 min 0 lux 0 W/m
12.11.2016 14:35 5,5 C 6,3 C 66 % 1021,9 hPa 0,0 l/m 17,6 km/h (3 Bft) S-SO45 165 0 min 0 lux 0 W/m
12.11.2016 14:40 5,6 C 6,6 C 66 % 1021,9 hPa 0,0 l/m 16,0 km/h (3 Bft) S45 170 0 min 0 lux 0 W/m
12.11.2016 14:45 5,6 C 6,7 C 66 % 1021,9 hPa 0,0 l/m 16,6 km/h (3 Bft) S-SO22.5 150 0 min 0 lux 0 W/m
12.11.2016 14:50 5,6 C 6,7 C 66 % 1021,9 hPa 0,0 l/m 11,6 km/h (2 Bft) S-SO22.5 165 0 min 0 lux 0 W/m
12.11.2016 14:54 5,4 C 6,6 C 66 % 1021,9 hPa 0,0 l/m 8,5 km/h (2 Bft) S-SO45 160 0 min 0 lux 0 W/m
12.11.2016 15:00 5,2 C 6,5 C 67 % 1021,9 hPa 0,0 l/m 16,2 km/h (3 Bft) S-SO45 155 0 min 0 lux 0 W/m
12.11.2016 15:05 5,1 C 6,3 C 67 % 1021,9 hPa 0,0 l/m 15,8 km/h (3 Bft) S-SO45 165 0 min 0 lux 0 W/m
12.11.2016 15:10 4,9 C 6,2 C 67 % 1021,9 hPa 0,0 l/m 19,2 km/h (3 Bft) S-SO45 160 0 min 0 lux 0 W/m
12.11.2016 15:15 4,7 C 6,3 C 68 % 1021,9 hPa 0,0 l/m 11,4 km/h (2 Bft) S-SO45 150 0 min 0 lux 0 W/m
12.11.2016 15:20 4,7 C 6,3 C 68 % 1020,9 hPa 0,0 l/m 13,6 km/h (3 Bft) SO45 145 0 min 0 lux 0 W/m
12.11.2016 15:24 4,7 C 6,3 C 69 % 1020,9 hPa 0,0 l/m 13,0 km/h (3 Bft) S-SO67.5 150 0 min 0 lux 0 W/m
12.11.2016 15:30 4,7 C 6,4 C 69 % 1021,9 hPa 0,0 l/m 13,2 km/h (3 Bft) SO45 145 0 min 0 lux 0 W/m
12.11.2016 15:35 4,7 C 6,4 C 69 % 1020,9 hPa 0,0 l/m 11,1 km/h (2 Bft) O-SO67.5 115 0 min 0 lux 0 W/m
12.11.2016 15:40 4,6 C 6,3 C 70 % 1021,9 hPa 0,0 l/m 10,6 km/h (2 Bft) SO45 140 0 min 0 lux 0 W/m
12.11.2016 15:45 4,6 C 6,3 C 70 % 1021,9 hPa 0,0 l/m 9,5 km/h (2 Bft) SO67.5 125 0 min 0 lux 0 W/m
12.11.2016 15:49 4,4 C 6,3 C 71 % 1021,9 hPa 0,0 l/m 7,1 km/h (2 Bft) SO45 135 0 min 0 lux 0 W/m
12.11.2016 15:54 4,3 C 6,3 C 71 % 1021,9 hPa 0,0 l/m 8,1 km/h (2 Bft) SO45 145 0 min 0 lux 0 W/m
12.11.2016 16:00 4,3 C 6,0 C 71 % 1020,9 hPa 0,0 l/m 11,5 km/h (2 Bft) SO67.5 145 0 min 0 lux 0 W/m
12.11.2016 16:05 4,2 C 6,2 C 71 % 1020,9 hPa 0,0 l/m 12,2 km/h (2 Bft) SO45 125 0 min 0 lux 0 W/m
12.11.2016 16:09 4,1 C 6,3 C 71 % 1020,9 hPa 0,0 l/m 11,9 km/h (2 Bft) SO45 135 0 min 0 lux 0 W/m
12.11.2016 16:15 4,0 C 6,3 C 72 % 1020,9 hPa 0,0 l/m 9,5 km/h (2 Bft) SO45 125 0 min 0 lux 0 W/m
12.11.2016 16:20 3,9 C 6,3 C 72 % 1020,9 hPa 0,0 l/m 12,4 km/h (2 Bft) O-SO67.5 115 0 min 0 lux 0 W/m
12.11.2016 16:25 3,8 C 6,3 C 72 % 1020,9 hPa 0,0 l/m 12,0 km/h (2 Bft) SO45 145 0 min 0 lux 0 W/m
12.11.2016 16:30 3,7 C 6,3 C 72 % 1020,9 hPa 0,0 l/m 12,3 km/h (2 Bft) SO67.5 145 0 min 0 lux 0 W/m
12.11.2016 16:34 3,5 C 6,3 C 73 % 1020,9 hPa 0,0 l/m 10,0 km/h (2 Bft) SO67.5 130 0 min 0 lux 0 W/m
12.11.2016 16:40 3,5 C 6,3 C 73 % 1020,9 hPa 0,0 l/m 9,4 km/h (2 Bft) SO67.5 140 0 min 0 lux 0 W/m
12.11.2016 16:45 3,4 C 6,3 C 73 % 1020,9 hPa 0,0 l/m 8,8 km/h (2 Bft) O-SO45 110 0 min 0 lux 0 W/m
12.11.2016 16:50 3,4 C 6,4 C 73 % 1020,9 hPa 0,0 l/m 11,0 km/h (2 Bft) O-SO67.5 120 0 min 0 lux 0 W/m
12.11.2016 16:55 3,3 C 6,4 C 74 % 1020,9 hPa 0,0 l/m 10,6 km/h (2 Bft) SO45 130 0 min 0 lux 0 W/m
12.11.2016 16:59 3,3 C 6,3 C 74 % 1020,9 hPa 0,0 l/m 14,0 km/h (3 Bft) O-SO67.5 115 0 min 0 lux 0 W/m
12.11.2016 17:05 3,3 C 6,3 C 74 % 1020,9 hPa 0,0 l/m 13,5 km/h (3 Bft) SO45 145 0 min 0 lux 0 W/m
12.11.2016 17:10 3,2 C 6,2 C 74 % 1020,9 hPa 0,0 l/m 16,5 km/h (3 Bft) SO67.5 130 0 min 0 lux 0 W/m
12.11.2016 17:14 3,2 C 6,3 C 74 % 1020,9 hPa 0,0 l/m 13,7 km/h (3 Bft) SO45 125 0 min 0 lux 0 W/m
12.11.2016 17:19 3,2 C 6,3 C 74 % 1020,9 hPa 0,0 l/m 13,9 km/h (3 Bft) SO67.5 135 0 min 0 lux 0 W/m
12.11.2016 17:25 3,2 C 6,3 C 74 % 1020,9 hPa 0,0 l/m 15,0 km/h (3 Bft) SO67.5 145 0 min 0 lux 0 W/m
12.11.2016 17:30 3,2 C 6,4 C 74 % 1020,9 hPa 0,0 l/m 13,3 km/h (3 Bft) SO45 130 0 min 0 lux 0 W/m
12.11.2016 17:35 3,2 C 6,4 C 74 % 1020,9 hPa 0,0 l/m 15,0 km/h (3 Bft) S-SO45 150 0 min 0 lux 0 W/m
12.11.2016 17:39 3,1 C 6,3 C 74 % 1020,9 hPa 0,0 l/m 14,6 km/h (3 Bft) SO45 135 0 min 0 lux 0 W/m
12.11.2016 17:44 3,1 C 6,3 C 74 % 1021,9 hPa 0,0 l/m 12,2 km/h (2 Bft) S-SO45 155 0 min 0 lux 0 W/m
12.11.2016 17:50 3,1 C 6,2 C 74 % 1021,9 hPa 0,0 l/m 10,2 km/h (2 Bft) SO22.5 140 0 min 0 lux 0 W/m
12.11.2016 17:55 3,1 C 6,2 C 74 % 1020,9 hPa 0,0 l/m 13,6 km/h (3 Bft) SO45 140 0 min 0 lux 0 W/m
12.11.2016 18:00 3,1 C 6,3 C 74 % 1020,9 hPa 0,0 l/m 13,8 km/h (3 Bft) SO67.5 140 0 min 0 lux 0 W/m
12.11.2016 18:05 3,1 C 6,2 C 74 % 1020,9 hPa 0,0 l/m 13,8 km/h (3 Bft) SO67.5 140 0 min 0 lux 0 W/m
12.11.2016 18:10 3,1 C 6,2 C 75 % 1020,9 hPa 0,0 l/m 15,1 km/h (3 Bft) SO45 140 0 min 0 lux 0 W/m
12.11.2016 18:15 3,1 C 6,3 C 75 % 1021,9 hPa 0,0 l/m 11,1 km/h (2 Bft) S-SO67.5 155 0 min 0 lux 0 W/m
12.11.2016 18:20 3,1 C 6,1 C 74 % 1021,9 hPa 0,0 l/m 14,5 km/h (3 Bft) SO67.5 140 0 min 0 lux 0 W/m
12.11.2016 18:24 3,2 C 6,2 C 74 % 1021,9 hPa 0,0 l/m 19,4 km/h (3 Bft) SO67.5 140 0 min 0 lux 0 W/m
12.11.2016 18:30 3,2 C 6,2 C 74 % 1021,9 hPa 0,0 l/m 15,1 km/h (3 Bft) SO22.5 135 0 min 0 lux 0 W/m
12.11.2016 18:35 3,2 C 6,1 C 74 % 1021,9 hPa 0,0 l/m 19,1 km/h (3 Bft) S-SO67.5 155 0 min 0 lux 0 W/m
12.11.2016 18:40 3,2 C 6,3 C 74 % 1021,9 hPa 0,0 l/m 13,0 km/h (3 Bft) SO67.5 145 0 min 0 lux 0 W/m
12.11.2016 18:45 3,3 C 6,1 C 74 % 1021,9 hPa 0,0 l/m 17,4 km/h (3 Bft) S-SO45 150 0 min 0 lux 0 W/m
12.11.2016 18:49 3,3 C 6,2 C 74 % 1021,9 hPa 0,0 l/m 13,8 km/h (3 Bft) SO45 140 0 min 0 lux 0 W/m
12.11.2016 18:55 3,2 C 6,3 C 74 % 1021,9 hPa 0,0 l/m 12,2 km/h (2 Bft) SO67.5 140 0 min 0 lux 0 W/m
12.11.2016 19:00 3,1 C 6,1 C 74 % 1021,9 hPa 0,0 l/m 10,3 km/h (2 Bft) S-SO45 150 0 min 0 lux 0 W/m
12.11.2016 19:04 3,2 C 6,3 C 74 % 1021,9 hPa 0,0 l/m 10,8 km/h (2 Bft) S-SO45 150 0 min 0 lux 0 W/m
12.11.2016 19:09 3,2 C 6,2 C 74 % 1021,9 hPa 0,0 l/m 13,3 km/h (3 Bft) S-SO45 160 0 min 0 lux 0 W/m
12.11.2016 19:15 3,2 C 6,2 C 74 % 1021,9 hPa 0,0 l/m 14,3 km/h (3 Bft) SO22.5 145 0 min 0 lux 0 W/m
12.11.2016 19:20 3,3 C 6,2 C 74 % 1021,9 hPa 0,0 l/m 15,8 km/h (3 Bft) SO45 145 0 min 0 lux 0 W/m
12.11.2016 19:25 3,3 C 6,1 C 74 % 1021,9 hPa 0,0 l/m 10,9 km/h (2 Bft) S-SO22.5 160 0 min 0 lux 0 W/m
12.11.2016 19:29 3,3 C 6,1 C 74 % 1021,9 hPa 0,0 l/m 14,3 km/h (3 Bft) SO67.5 145 0 min 0 lux 0 W/m
12.11.2016 19:34 3,3 C 6,0 C 74 % 1021,9 hPa 0,0 l/m 19,6 km/h (3 Bft) SO67.5 145 0 min 0 lux 0 W/m
12.11.2016 19:40 3,3 C 6,1 C 73 % 1021,9 hPa 0,0 l/m 14,3 km/h (3 Bft) S-SO45 160 0 min 0 lux 0 W/m
12.11.2016 19:45 3,4 C 6,0 C 74 % 1021,9 hPa 0,0 l/m 14,0 km/h (3 Bft) S-SO45 150 0 min 0 lux 0 W/m
12.11.2016 19:50 3,4 C 6,1 C 73 % 1021,9 hPa 0,0 l/m 11,0 km/h (2 Bft) S-SO45 150 0 min 0 lux 0 W/m
12.11.2016 19:54 3,4 C 6,0 C 73 % 1021,9 hPa 0,0 l/m 16,8 km/h (3 Bft) S-SO45 165 0 min 0 lux 0 W/m
12.11.2016 19:59 3,4 C 6,0 C 73 % 1021,9 hPa 0,0 l/m 21,0 km/h (4 Bft) S-SO67.5 165 0 min 0 lux 0 W/m
12.11.2016 20:05 3,4 C 6,0 C 73 % 1021,9 hPa 0,0 l/m 23,3 km/h (4 Bft) S-SO67.5 150 0 min 0 lux 0 W/m
12.11.2016 20:09 3,5 C 6,0 C 72 % 1021,9 hPa 0,0 l/m 15,8 km/h (3 Bft) S-SO67.5 155 0 min 0 lux 0 W/m
12.11.2016 20:14 3,5 C 6,0 C 72 % 1021,9 hPa 0,0 l/m 15,1 km/h (3 Bft) S-SO67.5 150 0 min 0 lux 0 W/m
12.11.2016 20:20 3,4 C 6,0 C 72 % 1021,9 hPa 0,0 l/m 18,5 km/h (3 Bft) SO45 145 0 min 0 lux 0 W/m
12.11.2016 20:25 3,4 C 6,1 C 72 % 1021,9 hPa 0,0 l/m 17,9 km/h (3 Bft) SO67.5 145 0 min 0 lux 0 W/m
12.11.2016 20:30 3,4 C 6,0 C 72 % 1021,9 hPa 0,0 l/m 17,8 km/h (3 Bft) S-SO45 160 0 min 0 lux 0 W/m
12.11.2016 20:34 3,4 C 6,0 C 72 % 1021,9 hPa 0,0 l/m 17,8 km/h (3 Bft) S-SO67.5 155 0 min 0 lux 0 W/m
12.11.2016 20:39 3,4 C 6,0 C 72 % 1021,9 hPa 0,0 l/m 17,0 km/h (3 Bft) S-SO45 160 0 min 0 lux 0 W/m
12.11.2016 20:45 3,4 C 6,0 C 72 % 1021,9 hPa 0,0 l/m 14,2 km/h (3 Bft) SO45 145 0 min 0 lux 0 W/m
12.11.2016 20:50 3,4 C 6,0 C 72 % 1021,9 hPa 0,0 l/m 17,6 km/h (3 Bft) SO45 145 0 min 0 lux 0 W/m
12.11.2016 20:55 3,4 C 6,0 C 72 % 1021,9 hPa 0,0 l/m 19,3 km/h (3 Bft) S-SO45 150 0 min 0 lux 0 W/m
12.11.2016 20:59 3,4 C 6,0 C 72 % 1021,9 hPa 0,0 l/m 13,8 km/h (3 Bft) S-SO45 155 0 min 0 lux 0 W/m
12.11.2016 21:05 3,3 C 6,0 C 72 % 1021,9 hPa 0,0 l/m 13,8 km/h (3 Bft) S-SO45 150 0 min 0 lux 0 W/m
12.11.2016 21:10 3,3 C 6,0 C 72 % 1021,9 hPa 0,0 l/m 13,8 km/h (3 Bft) S-SO45 150 0 min 0 lux 0 W/m
12.11.2016 21:14 3,4 C 6,0 C 72 % 1021,9 hPa 0,0 l/m 24,0 km/h (4 Bft) S-SO45 150 0 min 0 lux 0 W/m
12.11.2016 21:19 3,3 C 6,1 C 72 % 1021,9 hPa 0,0 l/m 19,4 km/h (3 Bft) S-SO22.5 155 0 min 0 lux 0 W/m
12.11.2016 21:25 3,3 C 6,2 C 72 % 1021,9 hPa 0,0 l/m 17,6 km/h (3 Bft) SO22.5 145 0 min 0 lux 0 W/m
12.11.2016 21:30 3,3 C 6,1 C 72 % 1021,9 hPa 0,0 l/m 15,4 km/h (3 Bft) S-SO22.5 160 0 min 0 lux 0 W/m
12.11.2016 21:35 3,3 C 6,1 C 72 % 1021,9 hPa 0,0 l/m 21,3 km/h (4 Bft) S-SO45 165 0 min 0 lux 0 W/m
12.11.2016 21:39 3,3 C 6,0 C 73 % 1021,9 hPa 0,0 l/m 12,3 km/h (2 Bft) S-SO45 160 0 min 0 lux 0 W/m
12.11.2016 21:44 3,3 C 6,2 C 73 % 1021,9 hPa 0,0 l/m 12,1 km/h (2 Bft) S-SO67.5 155 0 min 0 lux 0 W/m
12.11.2016 21:50 3,3 C 6,1 C 72 % 1021,9 hPa 0,0 l/m 20,3 km/h (4 Bft) S-SO45 160 0 min 0 lux 0 W/m
12.11.2016 21:55 3,4 C 6,0 C 72 % 1021,9 hPa 0,0 l/m 17,6 km/h (3 Bft) S-SO45 160 0 min 0 lux 0 W/m
12.11.2016 22:00 3,3 C 6,1 C 73 % 1021,9 hPa 0,0 l/m 13,5 km/h (3 Bft) SO45 145 0 min 0 lux 0 W/m
12.11.2016 22:05 3,4 C 6,0 C 72 % 1021,9 hPa 0,0 l/m 17,5 km/h (3 Bft) S-SO22.5 165 0 min 0 lux 0 W/m
12.11.2016 22:10 3,4 C 6,0 C 72 % 1021,9 hPa 0,0 l/m 15,0 km/h (3 Bft) S-SO22.5 155 0 min 0 lux 0 W/m
12.11.2016 22:15 3,4 C 6,1 C 72 % 1021,9 hPa 0,0 l/m 18,6 km/h (3 Bft) S-SO22.5 150 0 min 0 lux 0 W/m
12.11.2016 22:20 3,4 C 6,0 C 72 % 1021,9 hPa 0,0 l/m 18,0 km/h (3 Bft) S45 170 0 min 0 lux 0 W/m
12.11.2016 22:24 3,4 C 6,1 C 72 % 1021,9 hPa 0,0 l/m 14,6 km/h (3 Bft) SO45 145 0 min 0 lux 0 W/m
12.11.2016 22:30 3,4 C 6,0 C 72 % 1021,9 hPa 0,0 l/m 16,2 km/h (3 Bft) S-SO45 150 0 min 0 lux 0 W/m
12.11.2016 22:35 3,3 C 6,0 C 72 % 1021,9 hPa 0,0 l/m 13,1 km/h (3 Bft) S-SO45 165 0 min 0 lux 0 W/m
12.11.2016 22:40 3,3 C 6,1 C 72 % 1021,9 hPa 0,0 l/m 15,3 km/h (3 Bft) S-SO22.5 150 0 min 0 lux 0 W/m
12.11.2016 22:44 3,3 C 6,1 C 72 % 1021,9 hPa 0,0 l/m 18,8 km/h (3 Bft) S-SO22.5 155 0 min 0 lux 0 W/m
12.11.2016 22:49 3,2 C 6,0 C 72 % 1021,9 hPa 0,0 l/m 19,9 km/h (4 Bft) S-SO45 155 0 min 0 lux 0 W/m
12.11.2016 22:55 3,2 C 6,0 C 72 % 1021,9 hPa 0,0 l/m 20,1 km/h (4 Bft) S-SO45 160 0 min 0 lux 0 W/m
12.11.2016 23:00 3,2 C 6,0 C 72 % 1021,9 hPa 0,0 l/m 13,5 km/h (3 Bft) S-SO45 165 0 min 0 lux 0 W/m
12.11.2016 23:04 3,2 C 5,8 C 72 % 1021,9 hPa 0,0 l/m 20,8 km/h (4 Bft) S-SO45 155 0 min 0 lux 0 W/m
12.11.2016 23:05 3,2 C 5,8 C 72 % 1021,9 hPa 0,0 l/m 20,8 km/h (4 Bft) S-SO45 155 0 min 0 lux 0 W/m
12.11.2016 23:09 3,1 C 5,9 C 72 % 1021,9 hPa 0,0 l/m 21,6 km/h (4 Bft) S-SO67.5 165 0 min 0 lux 0 W/m
12.11.2016 23:15 3,1 C 6,0 C 72 % 1021,9 hPa 0,0 l/m 14,8 km/h (3 Bft) S-SO67.5 155 0 min 0 lux 0 W/m
12.11.2016 23:20 3,1 C 6,0 C 72 % 1021,9 hPa 0,0 l/m 20,6 km/h (4 Bft) S-SO67.5 150 0 min 0 lux 0 W/m
12.11.2016 23:25 3,0 C 5,9 C 73 % 1021,9 hPa 0,0 l/m 16,3 km/h (3 Bft) SO67.5 140 0 min 0 lux 0 W/m
12.11.2016 23:30 3,0 C 5,9 C 72 % 1021,9 hPa 0,0 l/m 20,0 km/h (4 Bft) SO67.5 145 0 min 0 lux 0 W/m
12.11.2016 23:34 3,0 C 5,9 C 72 % 1021,9 hPa 0,0 l/m 15,5 km/h (3 Bft) S-SO67.5 160 0 min 0 lux 0 W/m
12.11.2016 23:40 2,9 C 5,9 C 73 % 1020,9 hPa 0,0 l/m 17,6 km/h (3 Bft) S-SO45 150 0 min 0 lux 0 W/m
12.11.2016 23:45 2,9 C 5,9 C 73 % 1020,9 hPa 0,0 l/m 15,3 km/h (3 Bft) S-SO67.5 150 0 min 0 lux 0 W/m
12.11.2016 23:50 2,8 C 6,0 C 73 % 1021,9 hPa 0,0 l/m 10,9 km/h (2 Bft) SO45 140 0 min 0 lux 0 W/m
12.11.2016 23:55 2,8 C 6,0 C 73 % 1021,9 hPa 0,0 l/m 10,2 km/h (2 Bft) SO45 140 0 min 0 lux 0 W/m
12.11.2016 23:59 2,8 C 6,0 C 73 % 1021,9 hPa 0,0 l/m 17,8 km/h (3 Bft) S-SO67.5 165 0 min 0 lux 0 W/m
_ Min-Zeit 04:30 10:25 13:30 15:20 - 00:34 - - - - -
Minimum _ -0,2 C 4,0 C 64 % 1020,9 hPa - 0,0 km/h (0 Bft) - - - - -
_ Max-Zeit 13:49 14:10 05:10 04:10 00:00 11:25 - - 00:00 00:00 00:00
Maximum _ 6,4 C 6,8 C 85 % 1024,0 hPa 0,0 l/m 31,7 km/h
S-SO (5 Bft)
- - 0 min 0,000 klux 0 W/m
Durchschnitt _ 2,6 C 6,0 C 75 % 1022,6 hPa #0,0 l/m 13,3 km/h (3 Bft) S-SO - #0 min. 0,000 klux 0 W/m